WEN3613 CYYC-CYLW

Flight info

Callsign WEN3613
Flight time 0h 49m
Altitude 22000
Route DCT ROVMA DCT UKSAP DCT NOVAR NORIP5
Aircraft DH8D/M-SDE2E3FGRY/H

Departure

Time 2026-05-08 20:31
Airport Calgary International Airport (CYYC)

Arrival

Time 2026-05-08 21:20
Airport Kelowna International Airport (CYLW)
Time Latitude Longitude Altitude Speed Heading
2026-05-08 20:05 51.13079 -114.00227 3567 ft 0 kts 213°
2026-05-08 20:17 51.13079 -114.00228 3567 ft 0 kts 213°
2026-05-08 20:17 51.13086 -114.00224 3567 ft 1 kts 191°
2026-05-08 20:17 51.13099 -114.00214 3567 ft 2 kts 214°
2026-05-08 20:18 51.13112 -114.00201 3567 ft 2 kts 213°
2026-05-08 20:18 51.13125 -114.00187 3567 ft 2 kts 213°
2026-05-08 20:18 51.13136 -114.00172 3567 ft 1 kts 225°
2026-05-08 20:18 51.13146 -114.00156 3567 ft 2 kts 227°
2026-05-08 20:19 51.13157 -114.00138 3568 ft 2 kts 226°
2026-05-08 20:19 51.13167 -114.00121 3568 ft 2 kts 227°
2026-05-08 20:19 51.13177 -114.00103 3569 ft 2 kts 226°
2026-05-08 20:19 51.13187 -114.00086 3570 ft 2 kts 226°
2026-05-08 20:20 51.13193 -114.00077 3570 ft 0 kts 220°
2026-05-08 20:20 51.13199 -114.00074 3571 ft 1 kts 159°
2026-05-08 20:20 51.13204 -114.00081 3570 ft 1 kts 134°
2026-05-08 20:20 51.13205 -114.00082 3570 ft 0 kts 134°
2026-05-08 20:23 51.13198 -114.00070 3571 ft 3 kts 133°
2026-05-08 20:23 51.13174 -114.00037 3574 ft 5 kts 133°
2026-05-08 20:23 51.13160 -113.99976 3576 ft 7 kts 92°
2026-05-08 20:23 51.13161 -113.99822 3576 ft 19 kts 90°
2026-05-08 20:24 51.13161 -113.99571 3578 ft 20 kts 89°
2026-05-08 20:24 51.13147 -113.99467 3580 ft 8 kts 133°
2026-05-08 20:24 51.13066 -113.99442 3579 ft 18 kts 180°
2026-05-08 20:24 51.12899 -113.99443 3578 ft 26 kts 180°
2026-05-08 20:25 51.12719 -113.99445 3578 ft 26 kts 179°
2026-05-08 20:25 51.12543 -113.99445 3576 ft 25 kts 180°
2026-05-08 20:25 51.12362 -113.99443 3575 ft 23 kts 179°
2026-05-08 20:25 51.12221 -113.99445 3573 ft 17 kts 182°
2026-05-08 20:26 51.12064 -113.99444 3570 ft 27 kts 180°
2026-05-08 20:26 51.11870 -113.99446 3566 ft 28 kts 179°
2026-05-08 20:26 51.11667 -113.99443 3562 ft 29 kts 180°
2026-05-08 20:26 51.11465 -113.99445 3559 ft 27 kts 180°
2026-05-08 20:27 51.11298 -113.99445 3557 ft 23 kts 180°
2026-05-08 20:27 51.11138 -113.99424 3557 ft 15 kts 138°
2026-05-08 20:27 51.11121 -113.99316 3557 ft 9 kts 88°
2026-05-08 20:27 51.11121 -113.99230 3557 ft 1 kts 91°
2026-05-08 20:28 51.11121 -113.99228 3557 ft 0 kts 91°
2026-05-08 20:29 51.11121 -113.99213 3557 ft 3 kts 91°
2026-05-08 20:29 51.11120 -113.99146 3557 ft 7 kts 90°
2026-05-08 20:29 51.11132 -113.99057 3557 ft 11 kts 47°
2026-05-08 20:30 51.11171 -113.99036 3557 ft 0 kts
2026-05-08 20:30 51.11172 -113.99036 3557 ft 0 kts
2026-05-08 20:30 51.11200 -113.99035 3557 ft 20 kts
2026-05-08 20:31 51.11589 -113.99040 3560 ft 96 kts
2026-05-08 20:31 51.12476 -113.99041 3603 ft 152 kts 359°
2026-05-08 20:31 51.13545 -113.98941 4211 ft 155 kts
2026-05-08 20:31 51.14623 -113.98781 4910 ft 161 kts
2026-05-08 20:32 51.15739 -113.98644 5643 ft 162 kts 358°
2026-05-08 20:32 51.16814 -113.98536 6503 ft 154 kts 358°
2026-05-08 20:32 51.17840 -113.98427 7277 ft 150 kts
2026-05-08 20:32 51.18928 -113.98178 7654 ft 172 kts
2026-05-08 20:33 51.20077 -113.98139 8387 ft 162 kts 343°
2026-05-08 20:33 51.21025 -113.99040 8921 ft 167 kts 312°
2026-05-08 20:33 51.21433 -114.00772 9452 ft 178 kts 277°
2026-05-08 20:33 51.21165 -114.02702 10157 ft 184 kts 256°
2026-05-08 20:34 51.20595 -114.04575 10738 ft 196 kts 248°
2026-05-08 20:34 51.19817 -114.06439 11141 ft 214 kts 244°
2026-05-08 20:34 51.17951 -114.10665 11863 ft 248 kts 242°
2026-05-08 20:35 51.16932 -114.12942 12224 ft 262 kts 242°
2026-05-08 20:35 51.15846 -114.15362 12602 ft 274 kts 242°
2026-05-08 20:35 51.14714 -114.17880 12978 ft 285 kts 241°
2026-05-08 20:35 51.13547 -114.20473 13350 ft 295 kts 241°
2026-05-08 20:36 51.12334 -114.23169 13723 ft 303 kts 241°
2026-05-08 20:36 51.11098 -114.25909 14090 ft 310 kts 241°
2026-05-08 20:36 51.09820 -114.28739 14459 ft 317 kts 241°
2026-05-08 20:36 51.08524 -114.31606 14824 ft 322 kts 241°
2026-05-08 20:37 51.07229 -114.34469 15182 ft 327 kts 240°
2026-05-08 20:37 51.05884 -114.37438 15548 ft 330 kts 240°
2026-05-08 20:37 51.04545 -114.40391 15906 ft 333 kts 240°
2026-05-08 20:37 51.03177 -114.43405 16266 ft 336 kts 241°
2026-05-08 20:38 51.01817 -114.46401 16617 ft 339 kts 240°
2026-05-08 20:38 51.00435 -114.49442 16970 ft 343 kts 240°
2026-05-08 20:38 50.99017 -114.52560 17329 ft 347 kts 240°
2026-05-08 20:38 50.97693 -114.55690 17665 ft 346 kts 248°
2026-05-08 20:39 50.96929 -114.59287 18036 ft 340 kts 262°
2026-05-08 20:39 50.96366 -114.62923 18399 ft 344 kts 262°
2026-05-08 20:39 50.95794 -114.66632 18760 ft 346 kts 262°
2026-05-08 20:39 50.95224 -114.70363 19119 ft 349 kts 262°
2026-05-08 20:40 50.94654 -114.74081 19474 ft 351 kts 262°
2026-05-08 20:40 50.94067 -114.77863 19834 ft 353 kts 261°
2026-05-08 20:40 50.93475 -114.81632 20190 ft 355 kts 261°
2026-05-08 20:40 50.92878 -114.85411 20546 ft 356 kts 261°
2026-05-08 20:41 50.92269 -114.89245 20905 ft 355 kts 262°
2026-05-08 20:41 50.91669 -114.93010 21253 ft 355 kts 262°
2026-05-08 20:41 50.91059 -114.96833 21614 ft 356 kts 262°
2026-05-08 20:41 50.90459 -115.00587 21912 ft 356 kts 262°
2026-05-08 20:42 50.89840 -115.04453 21965 ft 362 kts 261°
2026-05-08 20:42 50.89223 -115.08284 21951 ft 354 kts 261°
2026-05-08 20:42 50.88616 -115.11993 21949 ft 345 kts 260°
2026-05-08 20:42 50.88015 -115.15648 21954 ft 337 kts 259°
2026-05-08 20:43 50.87431 -115.19190 21957 ft 329 kts 259°
2026-05-08 20:43 50.86863 -115.22646 21956 ft 323 kts 259°
2026-05-08 20:43 50.86310 -115.26001 21955 ft 316 kts 259°
2026-05-08 20:43 50.85761 -115.29333 21954 ft 310 kts 259°
2026-05-08 20:44 50.85228 -115.32563 21956 ft 305 kts 259°
2026-05-08 20:44 50.84705 -115.35735 21957 ft 300 kts 259°
2026-05-08 20:44 50.84182 -115.38916 21958 ft 297 kts 259°
2026-05-08 20:44 50.83661 -115.42081 21959 ft 297 kts 259°
2026-05-08 20:45 50.83140 -115.45255 21958 ft 295 kts 259°
2026-05-08 20:45 50.82796 -115.47350 21960 ft 294 kts 259°
2026-05-08 20:45 50.82113 -115.51520 21964 ft 292 kts 259°
2026-05-08 20:45 50.81609 -115.54591 21969 ft 292 kts 259°
2026-05-08 20:46 50.81095 -115.57716 21974 ft 292 kts 259°
2026-05-08 20:46 50.80584 -115.60812 21975 ft 291 kts 259°
2026-05-08 20:46 50.80077 -115.63869 21978 ft 290 kts 259°
2026-05-08 20:46 50.79565 -115.66949 21984 ft 289 kts 259°
2026-05-08 20:47 50.79063 -115.69970 21985 ft 287 kts 259°
2026-05-08 20:47 50.78559 -115.72979 21986 ft 286 kts 259°
2026-05-08 20:47 50.78054 -115.75991 21987 ft 285 kts 259°
2026-05-08 20:47 50.77555 -115.78965 21984 ft 285 kts 259°
2026-05-08 20:48 50.77050 -115.81974 21982 ft 284 kts 259°
2026-05-08 20:48 50.76549 -115.84946 21999 ft 282 kts 259°
2026-05-08 20:48 50.76052 -115.87875 22376 ft 281 kts 259°
2026-05-08 20:48 50.75565 -115.90779 22829 ft 283 kts 259°
2026-05-08 20:49 50.75073 -115.93728 23283 ft 284 kts 259°
2026-05-08 20:49 50.74574 -115.96699 23740 ft 285 kts 259°
2026-05-08 20:49 50.74063 -115.99741 23926 ft 297 kts 259°
2026-05-08 20:49 50.73527 -116.02925 23970 ft 307 kts 259°
2026-05-08 20:50 50.72969 -116.06171 23975 ft 305 kts 259°
2026-05-08 20:50 50.72415 -116.09372 23973 ft 303 kts 259°
2026-05-08 20:50 50.71859 -116.12582 23967 ft 302 kts 259°
2026-05-08 20:50 50.71305 -116.15788 23963 ft 301 kts 259°
2026-05-08 20:51 50.70758 -116.18957 23959 ft 300 kts 259°
2026-05-08 20:51 50.70218 -116.22081 23961 ft 299 kts 259°
2026-05-08 20:51 50.69690 -116.25135 23962 ft 298 kts 259°
2026-05-08 20:51 50.69135 -116.28339 23961 ft 295 kts 259°
2026-05-08 20:52 50.68602 -116.31416 23961 ft 292 kts 259°
2026-05-08 20:52 50.68069 -116.34480 23962 ft 291 kts 259°
2026-05-08 20:52 50.67538 -116.37537 23962 ft 291 kts 259°
2026-05-08 20:52 50.67003 -116.40600 23961 ft 291 kts 259°
2026-05-08 20:53 50.66458 -116.43632 23962 ft 293 kts 259°
2026-05-08 20:53 50.65902 -116.46706 23961 ft 294 kts 259°
2026-05-08 20:53 50.65337 -116.49818 23959 ft 292 kts 259°
2026-05-08 20:53 50.64782 -116.52869 23960 ft 292 kts 259°
2026-05-08 20:54 50.64225 -116.55932 23962 ft 293 kts 259°
2026-05-08 20:54 50.63659 -116.59044 23960 ft 294 kts 259°
2026-05-08 20:54 50.63101 -116.62103 23962 ft 295 kts 259°
2026-05-08 20:54 50.62526 -116.65255 23962 ft 297 kts 258°
2026-05-08 20:55 50.61961 -116.68347 23945 ft 297 kts 258°
2026-05-08 20:55 50.61391 -116.71461 23942 ft 295 kts 258°
2026-05-08 20:55 50.60821 -116.74564 23944 ft 296 kts 258°
2026-05-08 20:55 50.60253 -116.77660 23941 ft 295 kts 258°
2026-05-08 20:56 50.59687 -116.80737 23942 ft 297 kts 258°
2026-05-08 20:56 50.59110 -116.83863 23943 ft 297 kts 258°
2026-05-08 20:56 50.58537 -116.86974 23943 ft 298 kts 258°
2026-05-08 20:56 50.57954 -116.90122 23941 ft 301 kts 258°
2026-05-08 20:57 50.57360 -116.93321 23940 ft 301 kts 258°
2026-05-08 20:57 50.56775 -116.96472 23941 ft 301 kts 258°
2026-05-08 20:57 50.56187 -116.99638 23941 ft 304 kts 258°
2026-05-08 20:57 50.55596 -117.02817 23942 ft 305 kts 258°
2026-05-08 20:58 50.54997 -117.06033 23941 ft 306 kts 259°
2026-05-08 20:58 50.54395 -117.09258 23941 ft 307 kts 259°
2026-05-08 20:58 50.53792 -117.12482 23941 ft 308 kts 259°
2026-05-08 20:58 50.53189 -117.15699 23942 ft 309 kts 259°
2026-05-08 20:59 50.52581 -117.18938 23943 ft 309 kts 259°
2026-05-08 20:59 50.51974 -117.22169 23943 ft 310 kts 259°
2026-05-08 20:59 50.51360 -117.25433 23943 ft 311 kts 258°
2026-05-08 20:59 50.50748 -117.28670 23943 ft 312 kts 259°
2026-05-08 21:00 50.50127 -117.31956 23942 ft 312 kts 259°
2026-05-08 21:00 50.49506 -117.35232 23942 ft 312 kts 259°
2026-05-08 21:00 50.48888 -117.38490 23943 ft 312 kts 259°
2026-05-08 21:00 50.48269 -117.41740 23943 ft 312 kts 258°
2026-05-08 21:01 50.47651 -117.44983 23943 ft 312 kts 258°
2026-05-08 21:01 50.47022 -117.48277 23946 ft 312 kts 259°
2026-05-08 21:01 50.46401 -117.51527 23948 ft 313 kts 259°
2026-05-08 21:01 50.45774 -117.54804 23948 ft 314 kts 259°
2026-05-08 21:02 50.45151 -117.58053 23949 ft 315 kts 259°
2026-05-08 21:02 50.44515 -117.61365 23951 ft 316 kts 259°
2026-05-08 21:02 50.43881 -117.64662 23951 ft 316 kts 258°
2026-05-08 21:02 50.43241 -117.67983 23950 ft 316 kts 258°
2026-05-08 21:03 50.42611 -117.71247 23952 ft 315 kts 258°
2026-05-08 21:03 50.41977 -117.74525 23951 ft 314 kts 258°
2026-05-08 21:03 50.41345 -117.77787 23951 ft 314 kts 258°
2026-05-08 21:03 50.40708 -117.81069 23953 ft 315 kts 258°
2026-05-08 21:04 50.40064 -117.84383 23952 ft 315 kts 258°
2026-05-08 21:04 50.39433 -117.87629 23950 ft 315 kts 258°
2026-05-08 21:04 50.38788 -117.90931 23951 ft 317 kts 258°
2026-05-08 21:04 50.38147 -117.94207 23951 ft 318 kts 258°
2026-05-08 21:05 50.37494 -117.97546 23951 ft 319 kts 258°
2026-05-08 21:05 50.36842 -118.00869 23951 ft 319 kts 258°
2026-05-08 21:05 50.36192 -118.04176 23950 ft 319 kts 258°
2026-05-08 21:05 50.35538 -118.07495 23950 ft 320 kts 258°
2026-05-08 21:06 50.34881 -118.10832 23900 ft 322 kts 258°
2026-05-08 21:06 50.34214 -118.14227 23553 ft 331 kts 258°
2026-05-08 21:06 50.33529 -118.17693 23082 ft 333 kts 258°
2026-05-08 21:06 50.32843 -118.21144 22583 ft 335 kts 257°
2026-05-08 21:07 50.32157 -118.24587 22077 ft 337 kts 257°
2026-05-08 21:07 50.31452 -118.28128 21556 ft 339 kts 257°
2026-05-08 21:07 50.30756 -118.31612 21041 ft 340 kts 257°
2026-05-08 21:07 50.30049 -118.35146 20518 ft 342 kts 257°
2026-05-08 21:08 50.29337 -118.38706 19990 ft 343 kts 257°
2026-05-08 21:08 50.28631 -118.42230 19469 ft 343 kts 257°
2026-05-08 21:08 50.27921 -118.45764 18945 ft 342 kts 257°
2026-05-08 21:08 50.27211 -118.49294 18422 ft 339 kts 257°
2026-05-08 21:09 50.26503 -118.52796 17906 ft 338 kts 257°
2026-05-08 21:09 50.25802 -118.56274 17389 ft 337 kts 257°
2026-05-08 21:09 50.25104 -118.59724 16901 ft 336 kts 257°
2026-05-08 21:09 50.24397 -118.63223 16394 ft 338 kts 257°
2026-05-08 21:10 50.23681 -118.66752 15876 ft 339 kts 256°
2026-05-08 21:10 50.22971 -118.70250 15361 ft 340 kts 256°
2026-05-08 21:10 50.22406 -118.73817 14820 ft 338 kts 265°
2026-05-08 21:10 50.22264 -118.77442 14329 ft 336 kts 270°
2026-05-08 21:11 50.22171 -118.81064 13824 ft 337 kts 270°
2026-05-08 21:11 50.22079 -118.84724 13306 ft 338 kts 270°
2026-05-08 21:11 50.21991 -118.88309 12786 ft 330 kts 270°
2026-05-08 21:11 50.21898 -118.91876 12280 ft 322 kts 270°
2026-05-08 21:12 50.21806 -118.95287 11800 ft 315 kts 270°
2026-05-08 21:12 50.21709 -118.98688 11321 ft 308 kts 270°
2026-05-08 21:12 50.21613 -119.01976 10849 ft 299 kts 270°
2026-05-08 21:12 50.21520 -119.05143 10403 ft 287 kts 270°
2026-05-08 21:13 50.21430 -119.08170 9976 ft 276 kts 269°
2026-05-08 21:13 50.21342 -119.11106 9561 ft 265 kts 269°
2026-05-08 21:13 50.21257 -119.13927 9161 ft 255 kts 269°
2026-05-08 21:13 50.21175 -119.16634 8778 ft 246 kts 269°
2026-05-08 21:14 50.21095 -119.19228 8412 ft 236 kts 269°
2026-05-08 21:14 50.21017 -119.21759 8054 ft 227 kts 269°
2026-05-08 21:14 50.20942 -119.24163 7713 ft 217 kts 269°
2026-05-08 21:14 50.20781 -119.26433 7386 ft 209 kts 259°
2026-05-08 21:15 50.20348 -119.28547 7069 ft 200 kts 249°
2026-05-08 21:15 50.19699 -119.30428 6769 ft 193 kts 239°
2026-05-08 21:15 50.18853 -119.32098 6496 ft 205 kts 230°
2026-05-08 21:15 50.17738 -119.33629 6177 ft 219 kts 219°
2026-05-08 21:16 50.16396 -119.34826 5835 ft 232 kts 208°
2026-05-08 21:16 50.14869 -119.35798 5467 ft 241 kts 205°
2026-05-08 21:16 50.13332 -119.36784 5084 ft 235 kts 205°
2026-05-08 21:16 50.11862 -119.37727 4728 ft 226 kts 205°
2026-05-08 21:17 50.10445 -119.38635 4389 ft 216 kts 205°
2026-05-08 21:17 50.09084 -119.39494 4057 ft 207 kts 202°
2026-05-08 21:17 50.07720 -119.40007 3743 ft 200 kts 190°
2026-05-08 21:17 50.06372 -119.40028 3519 ft 188 kts 178°
2026-05-08 21:18 50.05161 -119.39623 3424 ft 171 kts 166°
2026-05-08 21:18 50.04071 -119.39194 3361 ft 154 kts 177°
2026-05-08 21:18 50.02944 -119.38829 3184 ft 176 kts 170°
2026-05-08 21:18 50.01732 -119.38425 2984 ft 180 kts 177°
2026-05-08 21:19 50.00494 -119.38306 2623 ft 172 kts 182°
2026-05-08 21:19 49.99364 -119.38238 2308 ft 155 kts 181°
2026-05-08 21:19 49.98349 -119.38126 2040 ft 138 kts 177°
2026-05-08 21:19 49.97440 -119.38012 1684 ft 126 kts 179°
2026-05-08 21:20 49.96635 -119.37902 1440 ft 108 kts 180°
2026-05-08 21:20 49.95964 -119.37826 1401 ft 88 kts 180°
2026-05-08 21:20 49.95401 -119.37753 1385 ft 71 kts 173°
2026-05-08 21:20 49.95178 -119.37725 1380 ft 14 kts 199°
2026-05-08 21:21 49.95152 -119.37781 1380 ft 0 kts 262°
2026-05-08 21:21 49.95150 -119.37802 1381 ft 3 kts 262°
2026-05-08 21:21 49.95148 -119.37842 1381 ft 1 kts 269°
2026-05-08 21:22 49.95148 -119.37878 1382 ft 8 kts 268°
2026-05-08 21:22 49.95134 -119.37944 1382 ft 3 kts 297°
2026-05-08 21:22 49.95146 -119.37975 1384 ft 2 kts 306°
2026-05-08 21:22 49.95152 -119.37988 1384 ft 0 kts 306°